This is the latest recevied weather packets stored in our database for station/object SV2BZQ-2. If no packets are shown the sender has not sent any weather packets the latest 10 day(s).
| Time | Temp. | Humidity | Pressure | Rain* | Wind** | Luminosity | Snow |
|---|---|---|---|---|---|---|---|
| 1777561282 | 10.56° C | 86% | 1015.2 hPa | 1.02 mm | - | 26 W/m² | - |
| 1777561192 | 10.56° C | 86% | 1014.9 hPa | 1.02 mm | - | 26 W/m² | - |
| 1777561073 | 10.56° C | 86% | 1015.1 hPa | 1.02 mm | - | 25 W/m² | - |
| 1777560988 | 10.56° C | 85% | 1015 hPa | 1.02 mm | - | 25 W/m² | - |
| 1777560696 | 10.56° C | 85% | 1015 hPa | 1.02 mm | - | 25 W/m² | - |
| 1777560587 | 10.56° C | 84% | 1015.2 hPa | 1.02 mm | - | 28 W/m² | - |
| 1777560446 | 11.11° C | 84% | 1015.1 hPa | 1.02 mm | - | 30 W/m² | - |
| 1777560334 | 11.11° C | 83% | 1014.5 hPa | 0.76 mm | - | 35 W/m² | - |
| 1777560218 | 11.11° C | 82% | 1014.6 hPa | 0.76 mm | - | 39 W/m² | - |
| 1777560064 | 11.11° C | 81% | 1014.8 hPa | 0.51 mm | - | 39 W/m² | - |
| 1777559949 | 11.67° C | 81% | 1015.2 hPa | 0.51 mm | - | 37 W/m² | - |
| 1777559820 | 11.67° C | 80% | 1015.2 hPa | 0.51 mm | - | 33 W/m² | - |
| 1777559703 | 11.67° C | 79% | 1014.9 hPa | 0 mm | - | 25 W/m² | - |
| 1777559611 | 12.22° C | 78% | 1014.9 hPa | 0 mm | - | 21 W/m² | - |
| 1777559460 | 12.22° C | 77% | 1014.9 hPa | 0 mm | - | 21 W/m² | - |
| 1777559337 | 12.22° C | 76% | 1014.6 hPa | 0 mm | - | 21 W/m² | - |
| 1777559214 | 12.78° C | 75% | 1014.6 hPa | 0 mm | - | 21 W/m² | - |
| 1777559103 | 12.78° C | 75% | 1014.5 hPa | 0 mm | - | 19 W/m² | - |
| 1777558977 | 12.78° C | 75% | 1014.5 hPa | 0 mm | - | 19 W/m² | - |
| 1777558874 | 12.78° C | 74% | 1014.4 hPa | 0 mm | - | 21 W/m² | - |
| 1777558724 | 12.78° C | 74% | 1014.2 hPa | 0 mm | - | 23 W/m² | - |
| 1777558599 | 13.33° C | 74% | 1014.2 hPa | 0 mm | - | 25 W/m² | - |
| 1777558475 | 13.33° C | 74% | 1014 hPa | 0 mm | - | 25 W/m² | - |
| 1777558361 | 13.33° C | 73% | 1014 hPa | 0 mm | - | 28 W/m² | - |
| 1777558235 | 13.33° C | 73% | 1014 hPa | 0 mm | - | 32 W/m² | - |
* Rain latest hour (hover to see other rain measurements)
** Current wind speed in m/s (hover to see current wind gust speed)